STARLINK-34375

导读

STARLINK-34375是美国SpaceX公司星链(Starlink)星座中的一颗卫星,于2025年6月23日发射升空。星链项目旨在构建全球卫星互联网星座,为全球提供低延迟、高速率的宽带互联网服务,该卫星入轨后将进一步扩充星链星座的规模,提升星座服务覆盖能力与网络稳定性。

基本信息
目录编号:
64477
目录名称:
STARLINK-34375
国际标识:
2025-133F
轨道中心:
EARTH
卫星名称:
STARLINK-34375
卫星全名:
STARLINK-34375
卫星状态:
在轨 (已飞行355 天)
发射日期:
2025-06-23 UTC
国别 :
美国 (US)
星等 :
--
轨道信息
数据来源 国际轨道数据
星历时间: 2026-06-13T15:53:20+0800
15小时前
查看轨道信息
半长轴: 6840.864km
偏心率: 0.0001171
轨道倾角: 53.159°
近地点辐角 74.602°
升交点赤经 29.554°
平近点角 285.512°
近地点: 461.925km
远地点: 463.529km
周期: 93.848分钟
每日圈数: 15.343923
详细信息
使用方式:
暂无
2D轨道图
3D轨道图
轨道高度分析图
轨道倾角分析图
轨道综合分析图
查看轨道综合分析图